Dewpoint
36 36 36 36 38 38 38 38 38 39 39 39 40 42 44 45 49 46 41 34 34 30 29 26 25 21 22 20 16 17 14 14 15 11 11 6 12 15 12 13 17 15 15 15 17 17 13 23 26 23 24 21 21 21
37 37 37 38 37 37 37 37 36 36 36 37 37 37 38 40 43 44 42 36 37 33 32 29 28 26 24 24 22 17 17 14 16 11 14 17 19 16 14 9 17 11 14 13 16 13 18 24 24 26 24 23 22 20
37 38 38 38 38 36 36 37 37 37 36 36 35 35 36 34 37 39 41 36 34 30 30 30 26 26 26 25 24 25 17 21 17 22 18 19 18 18 10 9 13 18 19 17 16 15 18 20 22 24 25 24 24 22
39 38 37 38 38 36 35 35 35 38 38 38 37 37 36 36 38 38 38 36 35 31 27 29 27 24 25 24 25 24 21 24 24 25 24 23 17 19 16 16 12 14 18 17 16 16 16 15 16 17 18 19 21 23
38 38 38 39 40 40 41 40 40 39 39 39 38 38 37 37 38 37 37 37 37 34 28 27 26 21 24 22 21 24 23 25 26 24 22 20 18 19 17 15 15 16 16 15 18 18 17 19 16 12 12 14 15 18
37 37 36 36 37 37 38 38 40 41 41 41 40 39 38 38 39 35 31 35 38 37 30 25 22 20 24 22 21 23 25 26 25 22 20 17 20 21 20 17 17 20 19 20 19 19 20 17 13 13 13 14 17 19
36 37 38 38 38 39 40 40 40 38 39 41 41 39 39 38 38 34 27 36 38 37 30 23 20 20 24 25 25 25 27 26 25 24 22 22 21 24 20 16 17 17 20 21 20 18 18 16 17 12 12 11 12 13
37 38 39 40 40 41 40 40 41 42 40 40 41 39 38 37 35 33 34 38 38 33 30 23 16 17 23 20 19 24 22 24 24 22 22 19 20 20 16 16 16 15 15 16 18 17 16 13 14 14 9 11 12 11
40 41 41 40 39 39 40 41 41 42 42 41 39 36 32 31 29 32 38 38 35 31 25 21 16 15 21 19 20 21 21 16 22 19 19 18 15 14 15 14 13 13 14 14 12 12 12 15 14 12 10 10 11 11
39 40 39 38 37 37 38 38 39 41 42 39 33 28 24 30 36 36 31 29 30 30 28 21 16 15 17 17 16 17 19 16 13 16 21 16 13 14 9 7 6 7 8 10 16 15 13 13 11 10 9 9 9 9
38 39 39 39 39 40 40 40 39 41 39 34 29 26 30 35 29 24 22 22 22 21 24 19 17 14 19 15 15 19 15 16 11 13 14 12 10 10 8 7 6 5 4 6 6 8 9 10 10 11 11 10 8 9
38 39 39 39 40 41 42 42 40 40 36 32 29 32 28 23 22 19 18 20 19 17 20 18 18 19 19 22 18 18 14 15 11 15 11 9 7 7 6 6 5 5 5 6 5 7 8 9 8 9 10 11 10 10
38 38 39 39 40 43 42 43 40 37 34 32 24 22 19 19 16 15 13 14 15 19 18 18 17 18 19 20 17 16 13 11 15 10 8 7 8 7 6 5 5 4 4 5 6 5 5 5 5 6 8 9 11 12
37 38 39 39 42 41 42 41 38 37 33 27 21 17 15 15 16 16 16 15 16 18 18 18 17 18 18 17 16 13 13 13 7 6 6 7 6 6 6 6 5 5 5 5 4 4 4 4 4 4 5 7 8 10
36 39 41 39 40 41 42 40 38 35 31 25 19 14 15 17 21 20 19 19 20 21 20 18 17 18 16 14 14 12 9 7 6 5 7 7 7 7 7 7 6 6 6 6 6 6 6 6 5 6 6 6 5 6
36 37 37 41 43 43 42 38 34 32 29 23 19 16 20 18 18 19 18 19 20 20 21 17 14 13 13 13 10 10 9 7 7 7 9 10 8 8 8 8 7 7 7 7 7 7 6 6 6 7 7 7 7 7
35 34 38 38 39 38 37 33 32 30 27 24 22 23 19 18 17 18 18 18 19 20 16 14 13 12 14 10 10 10 7 5 6 7 7 7 7 7 8 8 8 8 7 7 7 7 7 8 8 7 6 7 7 7
32 36 38 38 38 36 33 32 30 27 23 22 23 22 20 18 19 18 19 21 21 19 18 17 17 13 10 9 6 4 4 6 5 5 5 6 6 7 8 7 7 7 7 6 6 6 5 5 5 6 6 6 7 7
31 35 37 37 36 31 28 26 25 21 18 20 21 20 16 13 11 11 11 13 14 14 14 11 9 3 1 0 1 2 2 3 4 4 4 5 5 5 6 7 6 6 6 5 5 4 4 3 3 5 6 4 4 6
31 33 31 34 33 28 24 21 20 20 18 17 17 14 11 11 10 8 6 6 7 5 2 -2 -3 -2 -2 -1 0 0 2 3 5 3 2 3 5 4 4 4 4 5 4 4 6 5 2 1 1 1 5 5 2 3
24 23 28 28 24 21 18 16 16 16 15 12 14 12 9 8 5 4 2 3 -1 -4 -4 -1 -2 -1 0 -0 0 1 2 2 3 5 3 1 3 3 3 3 4 3 2 1 1 -0 1 -0 1 -1 -1 0 1 -0
18 19 19 21 21 19 16 17 16 16 14 12 10 9 6 4 1 -0 2 -3 -4 -2 -1 -1 -1 -1 -1 -2 -2 -1 0 2 2 3 3 3 -0 0 -0 0 0 0 -0 -1 -2 -2 -2 1 2 -3 -3 -1 -3 -3
14 12 13 12 17 15 12 16 13 11 10 7 8 5 2 1 1 3 -4 -2 -1 2 2 1 1 1 -1 -0 -0 -1 -1 -1 -2 -2 -3 -2 -2 -4 -3 -2 -4 -5 -4 -3 -3 -3 -3 1 -0 -1 -5 -6 -6 -5
12 7 8 7 7 7 11 9 11 9 8 5 4 1 1 1 2 -3 -7 -3 1 3 2 1 2 1 1 -0 -2 -3 -3 -1 -2 -1 -2 -5 -6 -7 -5 -6 -4 -3 -3 -4 -4 -5 -5 -6 -3 -6 -7 -7 -8 -6
11 2 3 1 5 5 5 4 4 6 2 4 2 1 1 3 -4 -7 -7 -4 -2 -1 0 2 2 1 -1 -1 -0 -1 -1 -4 -6 -7 -3 -6 -7 -7 -6 -6 -6 -4 -5 -6 -6 -6 -6 -6 -7 -7 -7 -7 -5 -4
-0 -1 -1 -2 -0 0 0 -1 -1 -2 0 -0 -1 1 2 -3 -8 -11 -7 -4 -3 -3 -3 -2 -1 0 -1 -1 -3 -4 -4 -4 -6 -8 -6 -6 -8 -8 -9 -9 -10 -9 -7 -8 -7 -7 -6 -6 -7 -7 -7 -7 -3 -4
-3 -4 1 2 -0 -0 -1 -2 -3 -5 -7 -7 -7 -3 -2 -8 -11 -7 -3 -3 -2 -2 -2 -2 -2 -4 -5 -5 -6 -6 -6 -6 -7 -9 -8 -8 -9 -8 -8 -10 -10 -9 -7 -5 -5 -6 -7 -7 -7 -6 -6 -7 -7 -7
-4 -5 -5 -5 -7 -8 -8 -9 -10 -12 -10 -9 -6 -9 -9 -8 -9 -5 -4 -2 -2 -1 -1 -4 -6 -8 -7 -9 -10 -10 -11 -12 -12 -13 -13 -13 -13 -13 -13 -11 -11 -2 -0 -5 -3 -2 -3 -4 -4 -5 -5 -5 -5 -6
-8 -9 -9 -10 -12 -12 -13 -13 -13 -12 -10 -12 -10 -11 -11 -8 -7 -5 -3 -4 -7 -7 -8 -8 -8 -11 -11 -12 -12 -13 -14 -14 -11 -13 -14 -14 -14 -13 -14 -13 -11 -10 -10 -9 -2 1 0 -0 -0 0 -2 -6 -10 -11
-11 -14 -11 -13 -11 -11 -11 -13 -11 -12 -10 -10 -10 -7 -7 -6 -5 -10 -9 -9 -7 -6 -6 -9 -11 -12 -9 -10 -9 -10 -11 -15 -13 -10 -12 -12 -11 -11 -10 -9 -9 -8 -8 -9 -8 -8 -3 -4 -4 -7 -9 -11 -12 -13
-16 -13 -12 -13 -12 -11 -14 -17 -18 -13 -14 -12 -14 -10 -9 -8 -8 -8 -8 -8 -8 -8 -7 -6 -8 -12 -10 -9 -10 -11 -11 -13 -15 -14 -13 -12 -11 -9 -9 -8 -8 -7 -6 -6 -7 -9 -9 -9 -9 -10 -11 -12 -13 -10
-14 -13 -13 -14 -12 -15 -19 -15 -15 -14 -13 -11 -10 -11 -9 -8 -8 -7 -6 -8 -8 -7 -4 -5 -6 -7 -9 -10 -11 -13 -5 -7 -8 -9 -10 -9 -8 -7 -6 -5 -3 -2 -3 -5 -6 -8 -9 -10 -11 -13 -13 -14 -14 -15
-19 -20 -18 -15 -15 -17 -18 -16 -16 -14 -15 -13 -11 -11 -10 -8 -7 -7 -6 -7 -7 -7 -6 -6 -8 -9 -9 -10 -11 -11 -7 -11 -10 -1 1 -0 -0 -0 -1 -1 1 -1 -3 -6 -7 -9 -10 -12 -14 -14 -14 -15 -15 -15
Wind_Speed
14 15 15 16 16 16 17 17 17 17 17 18 19 18 18 22 18 19 12 21 17 12 10 13 11 12 5 6 10 6 6 2 4 8 8 7 8 6 4 5 8 13 14 9 9 6 14 7 5 7 1 0 2 4
16 17 17 17 17 17 17 17 16 16 16 17 18 18 17 19 20 25 12 13 7 5 6 5 14 14 16 19 12 12 3 6 11 6 6 3 5 3 3 5 2 7 10 8 16 11 3 8 5 2 2 1 2 3
16 16 17 17 17 17 18 17 17 17 17 17 17 17 17 19 18 14 7 7 1 4 6 4 14 13 9 12 12 15 7 6 7 4 5 3 6 7 6 10 6 7 6 6 3 10 15 12 9 9 9 9 7 6
17 18 18 19 19 18 18 18 18 18 18 18 18 19 17 17 15 13 5 7 4 2 6 5 4 1 4 6 8 3 10 9 6 4 4 6 5 5 5 6 9 6 10 10 10 17 17 16 10 7 4 5 5 7
20 21 23 23 23 23 22 21 20 20 17 17 18 18 19 17 16 13 13 13 17 10 5 3 1 7 7 2 5 5 8 10 4 4 6 9 3 4 1 2 13 14 25 19 20 20 14 18 7 4 4 4 6 5
22 22 22 22 21 22 22 23 23 23 21 19 18 18 18 17 12 5 5 5 7 3 4 5 3 5 6 4 4 9 11 6 7 7 5 4 2 7 6 7 18 23 21 22 24 8 10 4 3 4 7 7 4 5
23 24 24 23 23 23 23 23 22 21 21 20 17 16 14 12 1 3 5 1 9 4 3 2 3 3 3 3 2 3 4 2 4 7 6 4 4 8 5 15 3 9 16 14 5 3 11 8 9 1 2 4 5 6
23 23 23 24 23 24 23 23 23 20 19 20 14 8 8 5 2 4 6 5 14 4 3 3 1 1 2 2 3 0 3 3 4 4 4 4 4 3 11 10 12 9 9 9 11 8 4 2 1 3 2 4 8 9
24 26 24 23 24 24 24 22 22 20 15 13 1 3 3 6 3 4 12 5 5 4 4 4 6 5 3 4 2 1 3 4 1 5 4 8 6 11 9 10 11 10 6 9 4 2 1 5 6 6 5 6 8 8
26 25 25 27 27 26 25 24 23 21 13 10 4 0 2 1 6 6 4 1 2 2 2 2 3 5 5 4 4 5 3 4 5 6 6 6 8 3 12 7 9 11 10 7 5 4 3 4 5 7 8 7 6 5
27 28 30 31 31 29 27 24 21 13 14 4 4 2 1 4 3 3 2 1 2 2 2 2 2 4 3 4 5 4 5 6 4 4 8 4 6 5 13 13 13 13 10 7 5 5 3 2 2 6 7 5 5 4
30 31 33 32 33 31 27 22 17 7 8 10 10 5 2 2 2 1 2 2 1 2 2 1 2 2 2 2 2 5 4 5 3 6 3 4 2 7 11 12 14 14 11 8 6 6 5 4 4 3 5 7 5 2
31 33 34 33 31 26 19 10 10 26 19 6 4 3 2 1 2 2 2 2 2 2 3 2 1 2 2 1 2 3 4 3 9 3 4 3 7 9 12 10 9 13 12 12 11 9 8 9 10 10 9 9 7 10
35 38 37 31 19 22 15 7 33 17 7 3 7 4 5 3 5 5 4 3 3 3 5 4 3 1 1 2 1 2 2 4 2 3 3 7 8 9 8 9 9 11 13 12 12 13 14 14 14 14 14 12 12 13
36 38 22 15 36 24 11 31 18 5 4 4 4 5 9 4 2 3 2 3 2 6 6 4 3 2 2 2 2 3 1 3 4 2 4 6 5 5 8 9 8 11 12 12 10 12 13 13 15 15 15 15 15 14
32 17 16 43 27 2 30 16 5 2 3 4 3 4 2 5 5 3 4 3 5 7 3 3 2 2 2 3 3 4 3 3 1 2 4 2 4 6 6 6 7 8 10 10 11 10 11 13 13 11 13 15 15 14
19 4 23 28 29 15 11 4 1 2 3 4 3 2 4 2 4 3 4 5 7 6 3 2 2 2 4 1 2 1 2 1 3 3 5 7 6 6 6 6 7 7 9 9 10 10 9 10 11 14 16 13 12 13
5 12 18 17 15 5 4 4 2 2 2 1 3 3 3 4 4 5 3 4 4 4 5 1 4 3 2 3 2 2 4 3 5 5 6 6 7 8 7 7 7 7 8 9 10 10 12 13 13 12 11 10 12 14
20 11 12 13 4 3 3 2 4 3 2 1 4 5 5 7 8 7 6 8 7 6 4 4 4 2 2 4 3 3 6 5 2 3 6 8 8 8 7 8 8 9 9 8 9 10 10 11 10 9 9 10 9 10
12 6 16 7 6 2 1 1 4 3 4 2 3 5 5 5 4 7 14 11 6 5 8 6 4 3 4 4 5 5 8 8 2 2 4 7 8 8 9 7 6 6 7 8 7 9 9 9 11 11 10 10 10 10
10 10 11 5 3 6 4 3 3 2 2 4 2 3 4 4 6 7 8 8 9 6 5 4 4 4 5 6 7 6 9 9 8 5 3 3 6 7 7 8 7 7 6 6 6 8 10 9 7 10 9 10 10 10
5 12 5 8 3 3 4 7 2 2 3 3 4 4 5 4 5 5 4 11 5 4 3 2 2 3 7 8 8 10 9 10 12 11 12 8 6 6 7 8 7 6 6 6 6 6 6 8 4 9 9 10 11 11
8 6 5 8 2 5 3 7 3 5 2 2 2 4 5 4 3 2 6 5 3 4 3 5 6 7 8 7 8 12 13 11 10 10 9 7 5 6 5 5 6 5 5 5 6 5 6 9 9 9 10 11 10 11
9 7 7 6 10 4 4 5 4 3 3 4 4 3 4 3 3 6 5 3 4 5 4 5 5 4 4 5 7 8 9 8 8 5 6 8 7 6 5 5 6 6 5 4 6 6 7 8 10 10 10 11 12 11
3 9 7 8 7 7 7 5 6 5 4 5 3 4 3 3 4 5 3 2 4 7 7 6 6 5 3 2 2 3 4 8 9 9 3 5 7 4 2 3 3 3 5 9 10 9 11 11 11 11 12 12 13 13
8 7 7 9 8 6 6 4 5 7 5 3 4 3 3 4 4 4 2 2 2 3 4 5 5 2 3 4 5 6 7 7 7 8 4 4 6 4 3 4 5 5 2 6 9 11 12 12 12 13 14 15 16 15
6 7 5 5 4 4 4 5 4 6 5 5 5 5 3 4 3 2 2 3 2 2 3 3 5 4 4 6 5 6 9 7 4 10 12 10 7 6 6 3 5 6 11 12 8 9 11 13 14 15 16 16 15 13
4 6 5 9 6 8 3 5 5 5 4 6 3 4 3 2 3 2 2 1 2 2 2 2 3 4 1 2 5 9 9 9 11 6 2 3 4 7 9 11 11 14 12 10 12 11 12 13 15 17 15 12 11 11
4 7 2 6 4 6 6 4 3 3 4 3 2 2 2 2 1 1 1 2 4 3 7 9 5 10 4 5 4 7 8 7 6 6 8 10 9 6 2 11 15 15 13 14 18 16 15 16 16 11 2 6 12 14
4 5 4 3 4 5 2 0 1 2 1 1 0 2 2 2 2 1 2 1 4 3 4 5 6 5 5 8 13 16 10 4 5 4 5 10 10 14 18 18 18 16 13 13 15 17 16 12 12 13 17 18 16 16
3 1 4 4 3 1 1 3 3 2 1 1 1 4 3 0 1 2 4 3 2 2 4 10 12 4 6 9 11 14 16 5 3 8 11 15 17 18 19 20 19 15 14 13 13 13 13 13 15 18 19 20 21 20
4 3 3 3 3 1 4 2 2 2 3 2 2 2 1 2 3 4 4 7 5 6 8 9 12 11 8 11 11 10 14 14 14 15 17 17 18 20 22 20 17 15 12 10 10 12 14 17 17 17 18 20 20 21
2 2 3 3 2 2 3 2 4 2 3 2 1 1 0 1 2 1 1 8 8 7 8 11 10 10 14 13 13 13 13 13 14 19 21 22 24 23 17 14 6 1 3 8 12 15 17 18 19 20 20 21 22 22
Wind_Direction
334 331 331 333 334 332 333 335 331 332 335 324 330 334 320 359 313 204 218 187 174 197 233 199 198 207 155 172 203 155 125 185 149 192 195 221 221 215 204 171 180 183 175 195 192 224 267 173 120 200 190 225 307 328
326 325 325 324 324 321 319 320 320 319 322 320 325 323 314 337 317 341 246 194 168 185 260 218 218 209 207 206 189 177 239 165 170 171 216 230 237 206 220 248 207 222 202 189 194 213 236 201 242 224 157 311 301 301
325 321 320 318 315 315 313 310 307 308 307 309 311 313 315 321 308 334 309 134 122 266 241 213 228 224 207 194 186 198 222 182 192 189 157 217 231 163 220 234 214 230 190 233 208 245 252 260 257 253 243 249 248 248
316 310 312 307 306 308 307 309 310 303 302 307 309 306 306 303 312 305 271 187 156 177 257 244 352 151 344 194 196 185 149 113 104 139 163 217 224 200 228 250 225 212 163 222 249 269 283 284 269 264 256 271 274 275
318 320 319 316 313 309 305 303 301 300 296 295 300 303 301 302 293 305 264 206 195 195 298 297 11 5 343 220 157 137 150 168 158 174 195 211 224 175 233 278 247 195 224 227 250 248 237 256 228 172 207 277 311 279
322 317 315 312 309 304 303 305 304 297 294 293 293 296 299 303 326 343 316 16 238 172 233 254 28 9 26 71 133 148 137 123 152 169 195 214 224 185 237 244 254 227 230 234 247 260 226 223 184 199 260 286 290 282
320 317 314 312 309 304 299 298 296 298 302 289 287 294 308 311 246 204 241 189 131 73 252 208 233 357 24 81 57 60 83 152 145 167 203 199 188 185 246 248 313 235 242 254 240 214 270 230 248 97 252 316 313 300
314 309 307 303 299 296 293 296 298 288 288 297 288 298 309 329 339 276 313 269 139 183 221 245 166 166 186 147 123 190 143 130 177 192 142 166 158 213 252 262 289 317 303 277 258 227 257 122 209 286 295 305 300 296
318 315 313 317 318 315 311 303 293 294 274 296 161 48 61 40 31 329 347 79 93 208 220 173 190 224 168 112 128 171 123 164 198 211 198 164 197 225 252 329 334 345 323 321 14 60 346 266 287 296 295 283 275 283
325 321 316 313 310 305 298 297 298 289 274 130 71 148 260 98 350 351 343 27 257 250 263 180 120 170 150 156 163 149 142 177 192 217 146 212 254 314 11 356 336 333 338 342 297 282 324 322 351 330 299 289 259 282
324 321 317 315 311 305 299 286 281 300 121 120 168 201 305 335 33 29 321 218 324 286 1 109 137 149 226 164 163 205 172 167 208 202 194 234 264 326 346 347 354 349 348 345 309 292 293 273 15 10 18 356 274 272
323 320 317 317 313 307 294 278 260 221 160 167 125 104 74 53 58 358 302 308 239 272 1 128 119 114 178 276 126 171 179 166 222 138 196 257 308 329 344 351 354 358 360 8 22 22 17 47 24 21 26 23 17 346
324 321 320 319 313 317 311 257 232 131 107 77 72 85 89 352 239 205 245 244 259 210 173 149 125 124 134 200 101 161 180 183 127 174 239 285 332 349 350 353 357 13 26 36 40 50 54 48 47 42 44 35 55 58
328 324 321 316 306 338 316 199 142 120 94 131 160 190 195 187 235 204 199 209 202 169 159 146 119 131 102 124 140 141 74 125 190 250 263 339 348 347 1 15 28 20 34 41 43 54 57 52 46 39 35 37 51 52
333 331 342 342 320 310 288 152 142 62 119 155 154 204 200 202 188 214 192 145 140 147 138 125 102 141 122 116 67 116 156 239 221 263 341 348 1 10 15 17 21 33 33 36 42 54 55 57 58 52 40 44 48 50
339 345 353 351 333 167 136 120 54 75 77 134 144 144 119 155 222 222 192 198 173 154 96 80 123 126 188 144 159 206 189 232 138 6 355 17 45 41 36 33 36 42 51 52 43 44 51 52 53 49 45 44 45 48
336 352 343 351 9 46 61 50 71 81 131 165 220 155 155 151 216 161 162 186 167 148 199 142 192 203 122 172 203 52 206 72 3 31 30 32 44 34 34 45 46 52 57 62 62 50 45 47 51 49 47 35 41 46
313 313 320 333 347 332 346 12 70 75 148 15 190 149 90 60 101 74 57 128 150 179 156 232 139 184 209 214 182 70 48 51 58 57 42 34 41 40 41 49 49 57 66 60 61 56 45 41 44 39 32 24 37 36
318 314 350 335 337 345 333 17 20 172 169 74 95 74 81 93 60 43 45 42 65 46 70 44 81 89 70 38 42 26 6 358 359 70 53 45 43 42 42 47 51 54 60 57 60 58 52 44 31 22 27 27 34 22
327 354 353 360 6 155 211 356 350 132 161 113 70 79 73 68 83 52 40 32 45 47 51 46 55 37 17 3 355 328 329 317 201 100 66 45 38 48 45 45 46 51 54 47 48 65 47 39 24 14 18 23 23 15
350 350 346 20 54 58 69 18 53 63 76 88 70 64 76 57 44 35 30 6 60 40 61 46 58 61 56 43 25 14 19 28 32 33 108 81 43 47 36 32 41 49 52 46 45 30 38 30 11 8 9 9 1 359
327 344 15 10 59 59 77 15 47 33 61 70 58 54 58 55 44 29 23 47 57 36 28 50 51 65 60 45 25 27 18 35 38 43 51 53 37 26 24 18 22 25 35 33 24 19 11 358 13 24 11 0 2 1
358 17 42 18 47 43 2 354 54 17 76 62 54 62 43 57 57 63 71 61 81 52 76 79 82 80 81 59 52 42 32 34 40 36 28 23 35 27 15 20 15 17 17 18 7 10 4 359 356 8 358 358 356 354
34 46 29 32 18 20 347 30 30 39 54 49 56 67 49 63 77 59 72 61 44 37 82 129 121 101 82 51 44 33 20 11 15 17 22 19 13 9 22 35 44 57 47 18 22 14 4 354 350 347 346 343 340 336
70 10 18 9 6 12 29 21 10 31 49 38 71 65 58 58 67 61 70 70 47 40 33 58 68 64 66 35 25 24 34 20 2 344 348 29 357 345 14 33 44 52 33 20 2 347 342 340 341 338 333 330 320 317
68 15 31 6 6 25 1 26 25 15 14 58 49 13 61 70 68 67 73 41 54 35 27 30 12 14 36 24 346 341 337 346 331 320 310 351 331 294 313 343 347 337 355 338 332 324 323 322 319 319 318 320 326 334
55 11 13 32 349 335 49 34 23 44 49 31 358 8 54 66 72 80 108 29 63 35 27 24 25 13 342 341 347 341 326 317 284 285 289 293 281 249 227 258 313 304 301 297 295 285 291 298 301 302 302 308 312 313
72 31 45 355 44 23 59 40 33 26 4 345 314 38 75 68 124 114 87 98 55 352 320 323 11 358 344 340 328 339 335 322 317 310 283 286 267 265 247 246 263 292 316 316 294 288 282 281 285 288 293 297 303 309
49 349 32 36 45 44 41 46 12 356 343 340 45 82 95 45 340 86 89 18 344 11 17 0 335 347 294 303 304 335 340 335 353 1 356 340 338 325 299 308 305 304 301 306 311 310 298 286 271 266 284 311 312 306
17 4 89 63 54 38 358 214 358 315 323 348 301 110 71 32 336 286 272 139 100 38 356 340 327 342 335 332 328 329 331 304 231 241 304 307 298 292 301 298 294 290 287 283 290 295 306 304 311 312 310 307 302 299
331 52 81 71 93 145 247 307 288 261 326 69 60 88 110 48 302 212 197 189 186 316 350 12 3 338 322 326 330 330 329 325 261 267 268 276 280 281 279 277 275 274 271 269 271 279 280 290 292 292 291 290 291 297
26 56 108 112 146 341 13 28 7 78 15 73 51 45 76 125 201 217 211 187 230 303 335 352 335 323 302 284 285 269 274 285 288 289 289 283 278 272 269 271 274 267 259 255 263 266 274 280 283 282 282 284 285 286
69 64 67 91 98 134 15 28 39 67 46 72 38 6 232 222 240 303 244 214 232 285 314 313 311 293 292 296 290 291 294 288 294 305 316 316 315 318 331 318 343 49 261 275 284 282 284 285 285 284 284 283 283 282